This is the latest recevied weather packets stored in our database for station/object DC4AT. If no packets are shown the sender has not sent any weather packets the latest 10 day(s).
| Time | Temp. | Humidity | Pressure | Rain* | Wind** | Luminosity | Snow |
|---|---|---|---|---|---|---|---|
| 1777627427 | 16.67° C | 48% | 1029.5 hPa | 0 mm | - | 631 W/m² | - |
| 1777626827 | 16.67° C | 53% | 1029.5 hPa | 0 mm | - | 617 W/m² | - |
| 1777626227 | 16.11° C | 53% | 1029.6 hPa | 0 mm | - | 605 W/m² | - |
| 1777625627 | 16.11° C | 56% | 1029.8 hPa | 0 mm | - | 587 W/m² | - |
| 1777625027 | 15.56° C | 57% | 1029.8 hPa | 0 mm | - | 570 W/m² | - |
| 1777624427 | 15° C | 56% | 1029.9 hPa | 0 mm | - | 555 W/m² | - |
| 1777623827 | 15° C | 57% | 1029.9 hPa | 0 mm | - | 538 W/m² | - |
| 1777623227 | 14.44° C | 57% | 1030 hPa | 0 mm | - | 519 W/m² | - |
| 1777622627 | 14.44° C | 59% | 1030.1 hPa | 0 mm | - | 499 W/m² | - |
| 1777622027 | 13.89° C | 58% | 1030 hPa | 0 mm | - | 480 W/m² | - |
| 1777621427 | 13.33° C | 61% | 1030.1 hPa | 0 mm | - | 457 W/m² | - |
| 1777620827 | 12.22° C | 68% | 1030.2 hPa | 0 mm | - | 434 W/m² | - |
| 1777620227 | 11.11° C | 71% | 1030.1 hPa | 0 mm | - | 410 W/m² | - |
| 1777619627 | 10.56° C | 76% | 1030.2 hPa | 0 mm | - | 387 W/m² | - |
| 1777619027 | 9.44° C | 78% | 1030.4 hPa | 0 mm | - | 366 W/m² | - |
| 1777618427 | 8.89° C | 80% | 1030.4 hPa | 0 mm | - | 200 W/m² | - |
| 1777617827 | 8.33° C | 82% | 1030.3 hPa | 0 mm | - | 320 W/m² | - |
| 1777617227 | 7.22° C | 83% | 1030.3 hPa | 0 mm | - | 294 W/m² | - |
| 1777616627 | 6.67° C | 82% | 1030.4 hPa | 0 mm | - | 271 W/m² | - |
| 1777616027 | 6.67° C | 81% | 1030.3 hPa | 0 mm | - | 248 W/m² | - |
| 1777615427 | 6.67° C | 78% | 1030.2 hPa | 0 mm | - | 225 W/m² | - |
| 1777614827 | 6.67° C | 80% | 1030.2 hPa | 0 mm | - | 200 W/m² | - |
| 1777614227 | 6.67° C | 82% | 1030.2 hPa | 0 mm | - | 169 W/m² | - |
| 1777613627 | 6.11° C | 83% | 1030 hPa | 0 mm | - | 95 W/m² | - |
| 1777613027 | 5° C | 84% | 1030 hPa | 0 mm | - | 35 W/m² | - |
* Rain latest hour (hover to see other rain measurements)
** Current wind speed in m/s (hover to see current wind gust speed)